QPF
0.05 0.06 0.07 0.09 0.11 0.14 0.18 0.21 0.23 0.28 0.35 0.38 0.33 0.24 0.18 0.15 0.15 0.19 0.23 0.22 0.22 0.20 0.16 0.14 0.10 0.07 0.05 0.03 0.02 0.02 0.02 0.03 0.04 0.08 0.10 0.08 0.09 0.07 0.05 0.05 0.03 0.03 0.04
0.05 0.09 0.11 0.11 0.12 0.14 0.14 0.14 0.19 0.25 0.32 0.33 0.27 0.18 0.12 0.11 0.11 0.11 0.11 0.13 0.14 0.12 0.11 0.10 0.06 0.02 0.01 0.00 0.00 0.00 0.01 0.02 0.02 0.04 0.06 0.07 0.09 0.08 0.08 0.07 0.05 0.03 0.05
0.04 0.05 0.06 0.07 0.09 0.10 0.10 0.14 0.21 0.28 0.30 0.28 0.22 0.17 0.16 0.16 0.17 0.14 0.08 0.05 0.04 0.05 0.05 0.04 0.02 0.01 0.00 0.00 0.00 0.00 0.01 0.01 0.03 0.05 0.06 0.06 0.06 0.05 0.05 0.06 0.09 0.11 0.09
0.05 0.04 0.04 0.04 0.04 0.06 0.09 0.13 0.16 0.16 0.17 0.19 0.21 0.22 0.19 0.15 0.10 0.05 0.03 0.04 0.03 0.02 0.02 0.01 0.00 0.00 0.00 0.00 0.00 0.01 0.01 0.02 0.03 0.03 0.03 0.03 0.02 0.01 0.02 0.03 0.06 0.11 0.13
0.11 0.10 0.07 0.04 0.02 0.01 0.02 0.04 0.06 0.10 0.12 0.14 0.18 0.19 0.13 0.06 0.04 0.03 0.02 0.02 0.01 0.01 0.00 0.00 0.00 0.00 0.00 0.00 0.00 0.00 0.01 0.01 0.00 0.01 0.01 0.00 0.00 0.00 0.00 0.01 0.03 0.07 0.11
0.15 0.16 0.12 0.08 0.03 0.01 0.01 0.01 0.04 0.06 0.07 0.09 0.09 0.06 0.02 0.01 0.00 0.00 0.00 0.00 0.00 0.00 0.00 0.00 0.00 0.00 0.00 0.00 0.00 0.00 0.00 0.00 0.00 0.01 0.00 0.00 0.00 0.00 0.01 0.02 0.03 0.03 0.04
0.18 0.21 0.16 0.13 0.05 0.01 0.01 0.02 0.03 0.03 0.04 0.05 0.03 0.01 0.00 0.00 0.00 0.00 0.00 0.00 0.00 0.00 0.00 0.00 0.00 0.00 0.00 0.00 0.00 0.00 0.00 0.00 0.00 0.00 0.00 0.00 0.00 0.00 0.01 0.03 0.05 0.06 0.05
0.15 0.21 0.21 0.15 0.06 0.02 0.02 0.03 0.02 0.03 0.06 0.08 0.04 0.01 0.00 0.00 0.00 0.00 0.00 0.00 0.00 0.00 0.00 0.00 0.00 0.00 0.00 0.00 0.00 0.00 0.00 0.00 0.00 0.00 0.00 0.00 0.00 0.00 0.00 0.03 0.06 0.11 0.12
0.10 0.18 0.22 0.17 0.08 0.03 0.04 0.04 0.03 0.04 0.06 0.06 0.03 0.01 0.00 0.00 0.00 0.00 0.00 0.01 0.00 0.00 0.00 0.00 0.00 0.00 0.00 0.00 0.00 0.00 0.00 0.00 0.00 0.00 0.00 0.00 0.00 0.00 0.00 0.01 0.02 0.06 0.11
0.05 0.13 0.20 0.21 0.15 0.09 0.08 0.05 0.03 0.04 0.06 0.04 0.03 0.01 0.00 0.00 0.00 0.00 0.00 0.01 0.02 0.01 0.00 0.00 0.00 0.00 0.00 0.00 0.00 0.00 0.00 0.00 0.00 0.00 0.00 0.00 0.00 0.00 0.00 0.01 0.01 0.02 0.07
0.03 0.08 0.15 0.23 0.21 0.18 0.15 0.09 0.05 0.05 0.07 0.08 0.05 0.04 0.02 0.00 0.00 0.00 0.00 0.01 0.01 0.01 0.00 0.00 0.00 0.00 0.00 0.00 0.00 0.00 0.00 0.00 0.00 0.00 0.00 0.00 0.00 0.00 0.00 0.00 0.01 0.02 0.03
0.03 0.09 0.16 0.20 0.13 0.12 0.15 0.13 0.11 0.10 0.10 0.09 0.07 0.05 0.02 0.00 0.00 0.00 0.00 0.00 0.00 0.00 0.00 0.00 0.00 0.00 0.00 0.00 0.00 0.00 0.00 0.00 0.00 0.00 0.00 0.00 0.00 0.00 0.00 0.00 0.01 0.02 0.05
0.03 0.08 0.14 0.16 0.15 0.19 0.16 0.13 0.12 0.11 0.10 0.07 0.04 0.03 0.01 0.00 0.00 0.00 0.00 0.00 0.00 0.00 0.00 0.00 0.00 0.00 0.00 0.00 0.00 0.00 0.00 0.00 0.00 0.00 0.00 0.00 0.00 0.00 0.00 0.00 0.00 0.01 0.02
0.03 0.07 0.11 0.14 0.15 0.16 0.16 0.13 0.10 0.08 0.08 0.07 0.04 0.02 0.01 0.00 0.00 0.00 0.00 0.00 0.00 0.00 0.00 0.00 0.00 0.00 0.00 0.00 0.00 0.00 0.00 0.00 0.00 0.00 0.00 0.00 0.00 0.00 0.00 0.00 0.00 0.00 0.00
0.03 0.06 0.08 0.10 0.12 0.12 0.12 0.12 0.12 0.11 0.07 0.07 0.06 0.03 0.02 0.01 0.00 0.00 0.00 0.00 0.00 0.00 0.00 0.00 0.00 0.00 0.00 0.00 0.00 0.00 0.00 0.00 0.00 0.00 0.00 0.00 0.00 0.00 0.00 0.00 0.00 0.00 0.00
0.02 0.04 0.04 0.05 0.08 0.08 0.09 0.04 0.02 0.04 0.01 0.01 0.02 0.02 0.01 0.00 0.00 0.00 0.00 0.00 0.00 0.00 0.00 0.00 0.00 0.00 0.00 0.00 0.00 0.00 0.00 0.00 0.00 0.00 0.00 0.00 0.00 0.00 0.00 0.00 0.00 0.00 0.00
0.01 0.02 0.02 0.02 0.03 0.04 0.04 0.03 0.01 0.00 0.00 0.00 0.00 0.00 0.00 0.00 0.00 0.00 0.00 0.00 0.00 0.00 0.00 0.00 0.00 0.00 0.00 0.00 0.00 0.00 0.00 0.00 0.00 0.00 0.00 0.00 0.00 0.00 0.00 0.00 0.00 0.00 0.00
0.02 0.01 0.01 0.01 0.01 0.01 0.01 0.02 0.03 0.01 0.00 0.00 0.00 0.00 0.00 0.00 0.00 0.00 0.00 0.00 0.00 0.00 0.00 0.00 0.00 0.00 0.00 0.00 0.00 0.00 0.00 0.00 0.00 0.00 0.00 0.00 0.00 0.00 0.00 0.00 0.00 0.00 0.00
0.03 0.01 0.00 0.00 0.00 0.00 0.00 0.01 0.02 0.03 0.02 0.01 0.00 0.00 0.00 0.00 0.00 0.00 0.00 0.00 0.00 0.00 0.00 0.00 0.00 0.00 0.00 0.00 0.00 0.00 0.00 0.00 0.00 0.00 0.00 0.00 0.00 0.00 0.00 0.00 0.00 0.00 0.00
0.06 0.01 0.00 0.00 0.00 0.00 0.00 0.00 0.01 0.03 0.03 0.02 0.00 0.00 0.00 0.00 0.00 0.00 0.00 0.00 0.00 0.00 0.00 0.00 0.00 0.00 0.00 0.00 0.00 0.00 0.00 0.00 0.00 0.00 0.00 0.00 0.00 0.00 0.00 0.00 0.00 0.00 0.00
0.08 0.01 0.00 0.00 0.00 0.00 0.00 0.00 0.00 0.01 0.02 0.02 0.01 0.00 0.00 0.00 0.00 0.00 0.00 0.00 0.00 0.00 0.00 0.00 0.00 0.00 0.00 0.00 0.00 0.00 0.00 0.00 0.00 0.00 0.00 0.00 0.00 0.00 0.00 0.00 0.00 0.00 0.00
0.12 0.02 0.00 0.00 0.00 0.00 0.00 0.00 0.00 0.00 0.00 0.01 0.00 0.00 0.00 0.00 0.00 0.00 0.00 0.00 0.00 0.00 0.00 0.00 0.00 0.00 0.00 0.00 0.00 0.00 0.00 0.00 0.00 0.00 0.00 0.00 0.00 0.00 0.00 0.00 0.00 0.00 0.00
0.15 0.03 0.01 0.00 0.00 0.00 0.00 0.00 0.00 0.00 0.00 0.00 0.00 0.00 0.00 0.00 0.00 0.00 0.00 0.00 0.00 0.00 0.00 0.00 0.00 0.00 0.00 0.00 0.00 0.00 0.00 0.00 0.00 0.00 0.00 0.00 0.00 0.00 0.00 0.00 0.00 0.00 0.00
0.15 0.06 0.01 0.00 0.00 0.00 0.00 0.00 0.00 0.00 0.00 0.00 0.00 0.00 0.00 0.00 0.00 0.00 0.00 0.00 0.00 0.00 0.00 0.00 0.00 0.00 0.00 0.00 0.00 0.00 0.00 0.00 0.00 0.00 0.00 0.00 0.00 0.00 0.00 0.00 0.00 0.00 0.00
0.14 0.06 0.02 0.01 0.00 0.00 0.00 0.00 0.00 0.00 0.00 0.00 0.00 0.00 0.00 0.00 0.00 0.00 0.00 0.00 0.00 0.00 0.00 0.00 0.00 0.00 0.00 0.00 0.00 0.00 0.00 0.00 0.00 0.00 0.00 0.00 0.00 0.00 0.00 0.00 0.00 0.00 0.00
0.12 0.06 0.03 0.01 0.00 0.00 0.00 0.00 0.00 0.00 0.00 0.00 0.00 0.00 0.00 0.00 0.00 0.00 0.00 0.00 0.00 0.00 0.00 0.00 0.00 0.00 0.00 0.00 0.00 0.00 0.00 0.00 0.00 0.00 0.00 0.00 0.00 0.00 0.00 0.00 0.00 0.00 0.00
MSLP
1008.76 1008.79 1008.75 1008.64 1008.44 1008.18 1007.86 1007.51 1007.16 1006.82 1006.51 1006.25 1006.05 1005.90 1005.83 1005.83 1005.90 1006.06 1006.29 1006.59 1006.95 1007.33 1007.71 1008.05 1008.32 1008.51 1008.61 1008.64 1008.60 1008.53 1008.46 1008.39 1008.33 1008.28 1008.23 1008.16 1008.05 1007.89 1007.69 1007.46 1007.24 1007.05 1006.92
1008.69 1008.76 1008.78 1008.73 1008.62 1008.43 1008.20 1007.92 1007.61 1007.29 1006.98 1006.69 1006.44 1006.24 1006.10 1006.04 1006.06 1006.18 1006.39 1006.67 1007.01 1007.37 1007.72 1008.03 1008.28 1008.45 1008.54 1008.56 1008.54 1008.51 1008.48 1008.46 1008.47 1008.48 1008.48 1008.45 1008.36 1008.22 1008.01 1007.76 1007.49 1007.25 1007.07
1008.48 1008.59 1008.66 1008.68 1008.65 1008.56 1008.42 1008.23 1008.00 1007.74 1007.46 1007.19 1006.93 1006.71 1006.54 1006.45 1006.45 1006.54 1006.73 1006.99 1007.31 1007.64 1007.97 1008.25 1008.47 1008.61 1008.69 1008.71 1008.69 1008.68 1008.67 1008.69 1008.73 1008.78 1008.82 1008.82 1008.76 1008.63 1008.42 1008.16 1007.87 1007.59 1007.35
1008.12 1008.27 1008.39 1008.48 1008.53 1008.54 1008.50 1008.41 1008.28 1008.11 1007.91 1007.69 1007.47 1007.27 1007.11 1007.02 1007.02 1007.10 1007.27 1007.52 1007.82 1008.13 1008.43 1008.69 1008.88 1009.01 1009.06 1009.07 1009.05 1009.03 1009.03 1009.06 1009.11 1009.18 1009.24 1009.25 1009.20 1009.08 1008.88 1008.62 1008.32 1008.01 1007.73
1007.64 1007.84 1008.01 1008.17 1008.30 1008.40 1008.46 1008.49 1008.46 1008.40 1008.29 1008.15 1008.00 1007.85 1007.73 1007.67 1007.68 1007.78 1007.95 1008.19 1008.48 1008.78 1009.06 1009.30 1009.47 1009.57 1009.61 1009.59 1009.56 1009.52 1009.51 1009.52 1009.56 1009.61 1009.66 1009.67 1009.63 1009.51 1009.32 1009.07 1008.77 1008.46 1008.16
1007.09 1007.33 1007.56 1007.79 1007.99 1008.18 1008.34 1008.47 1008.55 1008.59 1008.58 1008.54 1008.47 1008.40 1008.34 1008.33 1008.37 1008.49 1008.67 1008.92 1009.20 1009.49 1009.76 1009.98 1010.13 1010.22 1010.24 1010.20 1010.14 1010.07 1010.02 1010.00 1010.00 1010.02 1010.03 1010.02 1009.96 1009.85 1009.67 1009.43 1009.15 1008.85 1008.56
1006.51 1006.80 1007.10 1007.38 1007.66 1007.92 1008.17 1008.38 1008.56 1008.70 1008.79 1008.83 1008.85 1008.85 1008.87 1008.91 1009.00 1009.14 1009.35 1009.60 1009.88 1010.17 1010.43 1010.64 1010.79 1010.86 1010.86 1010.80 1010.71 1010.60 1010.50 1010.42 1010.37 1010.33 1010.30 1010.25 1010.17 1010.05 1009.88 1009.66 1009.42 1009.15 1008.88
1005.92 1006.28 1006.63 1006.99 1007.33 1007.66 1007.97 1008.26 1008.51 1008.72 1008.89 1009.01 1009.11 1009.19 1009.26 1009.36 1009.50 1009.68 1009.91 1010.17 1010.46 1010.75 1011.01 1011.21 1011.35 1011.41 1011.40 1011.32 1011.20 1011.05 1010.91 1010.77 1010.65 1010.55 1010.46 1010.36 1010.25 1010.12 1009.95 1009.76 1009.55 1009.33 1009.10
1005.35 1005.77 1006.19 1006.60 1007.00 1007.39 1007.76 1008.10 1008.40 1008.67 1008.90 1009.09 1009.24 1009.39 1009.52 1009.68 1009.86 1010.07 1010.32 1010.60 1010.90 1011.19 1011.44 1011.65 1011.78 1011.84 1011.82 1011.73 1011.58 1011.41 1011.22 1011.03 1010.86 1010.70 1010.55 1010.41 1010.27 1010.12 1009.96 1009.78 1009.61 1009.42 1009.24
1004.78 1005.26 1005.73 1006.21 1006.66 1007.10 1007.51 1007.89 1008.24 1008.55 1008.83 1009.07 1009.28 1009.47 1009.67 1009.87 1010.09 1010.33 1010.61 1010.90 1011.20 1011.49 1011.74 1011.94 1012.08 1012.13 1012.11 1012.02 1011.87 1011.69 1011.48 1011.26 1011.05 1010.84 1010.65 1010.47 1010.30 1010.13 1009.97 1009.81 1009.66 1009.51 1009.37
1004.21 1004.72 1005.25 1005.77 1006.27 1006.75 1007.20 1007.62 1008.01 1008.37 1008.68 1008.97 1009.24 1009.48 1009.73 1009.97 1010.23 1010.51 1010.80 1011.10 1011.40 1011.68 1011.93 1012.13 1012.26 1012.32 1012.31 1012.23 1012.10 1011.92 1011.71 1011.49 1011.27 1011.05 1010.84 1010.64 1010.44 1010.26 1010.09 1009.93 1009.79 1009.66 1009.54
1003.63 1004.16 1004.71 1005.27 1005.81 1006.33 1006.82 1007.29 1007.72 1008.12 1008.49 1008.83 1009.15 1009.46 1009.75 1010.04 1010.34 1010.64 1010.94 1011.25 1011.54 1011.81 1012.04 1012.23 1012.36 1012.43 1012.43 1012.38 1012.28 1012.13 1011.96 1011.77 1011.57 1011.36 1011.16 1010.95 1010.75 1010.56 1010.38 1010.21 1010.06 1009.92 1009.80
1003.04 1003.56 1004.11 1004.69 1005.26 1005.82 1006.36 1006.88 1007.37 1007.83 1008.26 1008.67 1009.05 1009.42 1009.77 1010.11 1010.44 1010.76 1011.07 1011.36 1011.64 1011.88 1012.10 1012.27 1012.39 1012.46 1012.49 1012.47 1012.42 1012.33 1012.21 1012.08 1011.93 1011.77 1011.60 1011.42 1011.23 1011.04 1010.85 1010.66 1010.48 1010.32 1010.18
1002.44 1002.92 1003.46 1004.04 1004.63 1005.23 1005.82 1006.40 1006.96 1007.49 1008.00 1008.49 1008.95 1009.38 1009.79 1010.18 1010.54 1010.87 1011.18 1011.46 1011.70 1011.92 1012.10 1012.24 1012.35 1012.43 1012.48 1012.50 1012.50 1012.48 1012.45 1012.40 1012.33 1012.24 1012.12 1011.98 1011.82 1011.64 1011.45 1011.24 1011.04 1010.84 1010.66
1001.86 1002.28 1002.78 1003.34 1003.95 1004.58 1005.22 1005.86 1006.50 1007.12 1007.72 1008.29 1008.83 1009.34 1009.81 1010.24 1010.62 1010.96 1011.26 1011.51 1011.72 1011.89 1012.03 1012.14 1012.24 1012.31 1012.38 1012.44 1012.50 1012.56 1012.62 1012.66 1012.68 1012.67 1012.63 1012.56 1012.44 1012.29 1012.10 1011.89 1011.66 1011.43 1011.20
1001.30 1001.64 1002.09 1002.63 1003.24 1003.89 1004.58 1005.29 1006.00 1006.71 1007.39 1008.05 1008.68 1009.26 1009.78 1010.24 1010.65 1010.99 1011.27 1011.49 1011.65 1011.78 1011.88 1011.95 1012.02 1012.09 1012.18 1012.28 1012.40 1012.53 1012.66 1012.80 1012.92 1013.00 1013.05 1013.04 1012.98 1012.87 1012.70 1012.49 1012.26 1012.00 1011.74
1000.76 1001.02 1001.42 1001.92 1002.52 1003.19 1003.92 1004.68 1005.46 1006.25 1007.02 1007.76 1008.45 1009.09 1009.66 1010.15 1010.57 1010.90 1011.16 1011.35 1011.48 1011.56 1011.62 1011.66 1011.71 1011.78 1011.87 1012.01 1012.17 1012.37 1012.58 1012.80 1013.00 1013.17 1013.30 1013.37 1013.37 1013.30 1013.17 1012.99 1012.76 1012.51 1012.24
1000.23 1000.42 1000.76 1001.23 1001.82 1002.49 1003.25 1004.05 1004.89 1005.73 1006.57 1007.37 1008.12 1008.80 1009.41 1009.92 1010.34 1010.67 1010.91 1011.07 1011.17 1011.22 1011.25 1011.28 1011.31 1011.38 1011.49 1011.65 1011.86 1012.10 1012.37 1012.65 1012.92 1013.17 1013.37 1013.50 1013.57 1013.56 1013.48 1013.34 1013.14 1012.91 1012.65
999.69 999.84 1000.13 1000.57 1001.13 1001.81 1002.57 1003.40 1004.27 1005.15 1006.03 1006.87 1007.66 1008.37 1009.00 1009.53 1009.95 1010.28 1010.51 1010.66 1010.74 1010.78 1010.80 1010.82 1010.86 1010.94 1011.07 1011.25 1011.49 1011.77 1012.08 1012.41 1012.73 1013.03 1013.28 1013.47 1013.59 1013.64 1013.62 1013.53 1013.39 1013.20 1012.98
999.15 999.26 999.53 999.94 1000.48 1001.14 1001.90 1002.73 1003.61 1004.51 1005.40 1006.26 1007.07 1007.80 1008.44 1008.97 1009.40 1009.73 1009.96 1010.11 1010.20 1010.25 1010.28 1010.32 1010.38 1010.48 1010.64 1010.85 1011.11 1011.42 1011.76 1012.12 1012.47 1012.80 1013.09 1013.32 1013.50 1013.60 1013.64 1013.61 1013.53 1013.40 1013.24
998.61 998.71 998.95 999.34 999.86 1000.49 1001.23 1002.04 1002.91 1003.80 1004.69 1005.56 1006.37 1007.10 1007.74 1008.28 1008.72 1009.05 1009.30 1009.47 1009.58 1009.65 1009.72 1009.79 1009.89 1010.03 1010.22 1010.46 1010.76 1011.09 1011.45 1011.83 1012.19 1012.54 1012.86 1013.12 1013.33 1013.48 1013.57 1013.61 1013.59 1013.53 1013.43
998.10 998.20 998.43 998.79 999.28 999.88 1000.57 1001.35 1002.19 1003.06 1003.93 1004.78 1005.57 1006.30 1006.94 1007.49 1007.93 1008.28 1008.55 1008.74 1008.89 1009.01 1009.12 1009.24 1009.39 1009.58 1009.82 1010.10 1010.43 1010.79 1011.17 1011.55 1011.93 1012.29 1012.62 1012.91 1013.15 1013.34 1013.48 1013.56 1013.61 1013.61 1013.57
997.66 997.77 997.98 998.31 998.75 999.30 999.95 1000.68 1001.47 1002.30 1003.13 1003.95 1004.73 1005.44 1006.08 1006.62 1007.08 1007.44 1007.73 1007.96 1008.15 1008.31 1008.48 1008.66 1008.87 1009.11 1009.40 1009.73 1010.10 1010.48 1010.89 1011.29 1011.68 1012.05 1012.39 1012.70 1012.96 1013.18 1013.36 1013.49 1013.59 1013.64 1013.65
997.32 997.42 997.62 997.90 998.29 998.78 999.36 1000.03 1000.76 1001.54 1002.33 1003.12 1003.87 1004.56 1005.19 1005.73 1006.19 1006.56 1006.87 1007.13 1007.35 1007.56 1007.78 1008.01 1008.28 1008.58 1008.93 1009.31 1009.71 1010.14 1010.57 1011.00 1011.41 1011.80 1012.15 1012.47 1012.76 1013.01 1013.21 1013.39 1013.52 1013.62 1013.67
997.09 997.18 997.33 997.57 997.89 998.31 998.82 999.41 1000.08 1000.80 1001.55 1002.29 1003.01 1003.69 1004.29 1004.83 1005.28 1005.66 1005.98 1006.26 1006.51 1006.75 1007.00 1007.28 1007.60 1007.96 1008.36 1008.79 1009.24 1009.71 1010.18 1010.64 1011.08 1011.49 1011.87 1012.21 1012.52 1012.79 1013.03 1013.23 1013.40 1013.53 1013.62
996.94 997.00 997.11 997.28 997.53 997.87 998.30 998.82 999.43 1000.09 1000.78 1001.49 1002.18 1002.82 1003.41 1003.93 1004.37 1004.75 1005.07 1005.35 1005.62 1005.88 1006.16 1006.48 1006.84 1007.24 1007.68 1008.16 1008.67 1009.19 1009.70 1010.20 1010.68 1011.12 1011.53 1011.90 1012.23 1012.52 1012.79 1013.02 1013.21 1013.38 1013.50
Thickness
5686 5684 5681 5679 5677 5675 5672 5669 5668 5667 5668 5670 5672 5675 5677 5679 5681 5681 5681 5680 5679 5678 5678 5676 5675 5677 5678 5682 5685 5688 5689 5689 5684 5686 5691 5694 5695 5697 5700 5702 5704 5705 5705
5677 5674 5670 5667 5664 5661 5658 5654 5652 5652 5653 5655 5659 5663 5667 5672 5674 5675 5676 5675 5674 5672 5670 5670 5670 5671 5672 5674 5678 5680 5682 5683 5681 5677 5680 5683 5685 5688 5690 5691 5693 5696 5695
5671 5667 5662 5658 5654 5650 5647 5643 5639 5638 5640 5643 5648 5652 5658 5662 5665 5667 5668 5667 5666 5664 5663 5663 5662 5662 5662 5666 5669 5671 5673 5675 5676 5673 5671 5673 5675 5677 5678 5679 5681 5681 5682
5666 5661 5657 5652 5648 5643 5639 5635 5630 5628 5629 5632 5637 5642 5647 5651 5655 5657 5658 5657 5656 5655 5654 5653 5653 5653 5655 5658 5659 5660 5663 5665 5665 5665 5662 5661 5661 5663 5665 5665 5665 5665 5664
5662 5658 5654 5649 5644 5640 5636 5631 5627 5624 5624 5626 5629 5632 5636 5640 5642 5645 5646 5646 5646 5644 5644 5644 5644 5645 5646 5648 5649 5649 5651 5651 5652 5652 5648 5647 5646 5647 5648 5651 5650 5651 5650
5659 5656 5652 5647 5642 5638 5634 5631 5626 5623 5622 5623 5623 5625 5628 5629 5631 5635 5637 5637 5637 5637 5636 5637 5637 5636 5637 5638 5639 5640 5641 5640 5638 5638 5635 5633 5632 5633 5635 5637 5638 5637 5636
5657 5654 5650 5644 5639 5635 5633 5630 5626 5623 5621 5621 5620 5620 5619 5620 5622 5624 5628 5629 5629 5628 5627 5628 5630 5626 5627 5629 5631 5631 5632 5631 5630 5627 5623 5622 5621 5622 5622 5624 5625 5624 5623
5655 5651 5647 5642 5637 5633 5630 5627 5624 5622 5619 5618 5616 5616 5615 5614 5615 5616 5619 5622 5621 5621 5620 5619 5616 5615 5616 5619 5623 5623 5623 5622 5621 5619 5617 5616 5615 5613 5612 5613 5614 5615 5615
5653 5650 5646 5641 5635 5630 5626 5624 5622 5619 5616 5615 5614 5612 5610 5608 5609 5610 5611 5614 5614 5613 5611 5610 5609 5607 5606 5609 5611 5610 5611 5611 5613 5612 5611 5611 5609 5607 5604 5603 5602 5602 5600
5653 5650 5645 5640 5634 5628 5624 5622 5620 5617 5613 5612 5610 5608 5606 5604 5603 5603 5604 5608 5608 5606 5602 5600 5598 5598 5598 5599 5601 5601 5600 5600 5602 5605 5606 5605 5602 5599 5596 5592 5589 5587 5586
5654 5650 5644 5639 5633 5628 5623 5619 5616 5613 5610 5608 5606 5604 5602 5600 5598 5598 5599 5602 5604 5605 5602 5596 5592 5592 5593 5594 5595 5594 5592 5594 5596 5598 5597 5594 5591 5587 5584 5582 5579 5577 5573
5652 5649 5643 5637 5633 5629 5621 5617 5614 5610 5606 5604 5602 5600 5599 5597 5596 5594 5594 5596 5599 5600 5596 5591 5588 5589 5590 5590 5590 5589 5590 5591 5591 5589 5584 5580 5576 5572 5571 5570 5570 5569 5568
5648 5645 5641 5636 5632 5629 5621 5615 5611 5608 5605 5602 5600 5598 5598 5596 5591 5590 5591 5591 5593 5591 5588 5586 5586 5585 5585 5584 5585 5584 5582 5581 5578 5574 5570 5566 5563 5562 5561 5559 5559 5559 5560
5643 5641 5638 5633 5629 5625 5620 5617 5613 5610 5606 5603 5601 5600 5598 5594 5591 5589 5589 5588 5586 5586 5585 5583 5582 5580 5579 5578 5579 5580 5578 5573 5568 5563 5559 5556 5554 5552 5550 5548 5545 5545 5546
5636 5637 5635 5631 5627 5623 5619 5617 5615 5613 5610 5605 5603 5603 5598 5594 5592 5590 5589 5587 5586 5585 5582 5580 5578 5578 5578 5578 5578 5577 5572 5566 5561 5556 5551 5546 5543 5541 5539 5538 5535 5534 5533
5629 5631 5631 5629 5625 5621 5616 5611 5604 5608 5607 5607 5606 5604 5599 5593 5586 5585 5583 5581 5579 5578 5578 5577 5578 5580 5579 5578 5576 5572 5566 5559 5554 5550 5544 5539 5535 5533 5530 5529 5527 5524 5523
5625 5626 5628 5628 5625 5621 5616 5613 5605 5599 5599 5602 5602 5600 5595 5587 5585 5582 5580 5578 5576 5574 5574 5575 5579 5580 5578 5576 5572 5567 5561 5555 5550 5545 5538 5533 5529 5526 5523 5521 5518 5515 5515
5619 5621 5623 5625 5625 5622 5619 5614 5611 5605 5600 5596 5592 5592 5588 5584 5581 5579 5577 5575 5574 5571 5573 5575 5578 5577 5575 5571 5568 5563 5558 5551 5545 5540 5534 5528 5524 5520 5516 5513 5512 5508 5506
5611 5615 5619 5623 5623 5621 5619 5616 5612 5609 5604 5599 5589 5581 5579 5577 5574 5572 5571 5574 5575 5575 5574 5576 5577 5575 5572 5569 5564 5559 5554 5548 5541 5536 5531 5525 5520 5515 5511 5507 5505 5502 5500
5605 5610 5612 5616 5618 5617 5616 5614 5612 5608 5604 5600 5593 5585 5576 5574 5574 5569 5569 5571 5572 5575 5577 5577 5576 5574 5570 5567 5562 5558 5554 5548 5541 5535 5529 5522 5516 5510 5505 5501 5498 5495 5493
5599 5604 5606 5609 5611 5612 5611 5611 5610 5607 5604 5599 5595 5589 5581 5580 5578 5575 5572 5571 5571 5573 5576 5576 5573 5570 5567 5564 5561 5557 5552 5547 5541 5535 5527 5519 5512 5506 5500 5497 5492 5489 5485
5593 5601 5603 5604 5604 5605 5606 5606 5607 5605 5602 5598 5594 5587 5577 5579 5579 5578 5575 5573 5573 5574 5575 5573 5571 5568 5566 5563 5560 5556 5552 5547 5541 5535 5527 5519 5511 5505 5498 5493 5488 5483 5479
5588 5596 5599 5599 5598 5597 5598 5601 5602 5603 5600 5597 5593 5587 5578 5578 5580 5579 5577 5575 5574 5574 5573 5571 5568 5568 5566 5563 5560 5556 5551 5546 5541 5534 5526 5517 5510 5503 5496 5490 5484 5479 5474
5585 5591 5596 5596 5595 5595 5596 5597 5599 5600 5598 5596 5593 5589 5581 5578 5580 5582 5581 5578 5576 5573 5571 5569 5567 5565 5564 5562 5558 5555 5551 5545 5540 5533 5525 5516 5508 5500 5494 5487 5480 5475 5469
5583 5588 5593 5594 5594 5596 5596 5597 5598 5598 5597 5595 5593 5591 5586 5580 5579 5581 5582 5580 5577 5574 5571 5569 5566 5564 5562 5560 5557 5553 5548 5543 5537 5530 5523 5515 5507 5499 5491 5484 5477 5471 5465
5580 5586 5589 5593 5596 5597 5598 5598 5598 5599 5598 5597 5596 5594 5591 5585 5582 5581 5581 5579 5576 5574 5571 5569 5566 5564 5561 5559 5556 5551 5545 5540 5534 5527 5521 5513 5506 5498 5490 5482 5475 5468 5462